Content
SEND FEEDBACK

Daily
Averages
Monthly
Summary
United States of America

NEW YORK - UPPER EAST SIDE, NEW YORK


Home > North America > United States > New York
Elevation: 132 feet     Latitude: 40 47N     Longitude: 073 58W

WEATHER
 
SELECT A DAY
Number of Records: 148,218;   Date Range: 11/1/95 - 8/30/14
 
SHARE

PRINT THIS DATA

[ ← Previous Day ]
WEATHER ALMANAC - JULY 26, 2013
[ Next Day → ]
[ °C ]   °F
Weather ElementAverageHighLow
Temperature73.9 °F82 °F (3:51 pm)64.9 °F (1:51 am)
Dewpoint57.9 °F63 °F (10:51 pm)55 °F (8:51 pm)
Humidity58.7 %75 % (1:51 am)41 % (4:51 pm)
Barometer30.02 in30.05 in (11:51 pm)30.00 in (4:51 am)
Wind Speed5.4 mph9.2 mph (4:51 am)
Weather ElementAverage
Visibility10 mi
Wind DirectionNE (41.7 °)

Weather ElementTotal
Precipitation---
Cooling Degree Days8.5 (Base 65)
Growing Degree Days23.5 (Base 50)
Averaged from 24 records on July 26, 2013
WEATHER CONDITIONS BREAKOUT
WIND DIRECTION BREAKOUT
WEATHER BY HOUR - JULY 26, 2013
[ °C ]   °F
Local TimeTemperatureDewpointHumidityBarometerVisibilityWind DirectionWind SpeedGust SpeedPrecipitationEventsConditions
1:51 AM64.9 °F57.0 °F75 %30.02 in10.0 miVariable6.9 mphOvercast
2:51 AM66.0 °F57.0 °F73 %30.01 in10.0 miNE (50°)8.1 mphOvercast
3:51 AM66.0 °F57.0 °F73 %30.01 in10.0 miVariable5.8 mphOvercast
4:51 AM66.9 °F57.9 °F73 %30.00 in10.0 miNNE (20°)9.2 mphOvercast
5:51 AM68.0 °F57.9 °F70 %30.01 in10.0 miVariable5.8 mphOvercast
6:51 AM68.0 °F57.9 °F70 %30.01 in10.0 miVariable3.5 mphOvercast
7:33 AM68.0 °F57.0 °F68 %30.04 in10.0 miVariable6.9 mphOvercast
7:51 AM68.0 °F57.0 °F68 %30.01 in10.0 miNE (50°)8.1 mphOvercast
8:51 AM69.1 °F57.9 °F68 %30.04 in10.0 miVariable4.6 mphOvercast
9:51 AM71.1 °F57.9 °F63 %30.03 in10.0 miENE (60°)4.6 mphPartly Cloudy
10:51 AM75.0 °F59.0 °F57 %30.04 in10.0 miVariable5.8 mphPartly Cloudy
11:51 AM77.0 °F59.0 °F54 %30.04 in10.0 miVariable4.6 mphOvercast
12:51 PM77.0 °F59.0 °F54 %30.02 in10.0 miENE (70°)8.1 mphPartly Cloudy
1:51 PM81.0 °F57.9 °F45 %30.02 in10.0 miNorthClear
2:51 PM81.0 °F57.9 °F45 %30.01 in10.0 miVariable4.6 mphClear
3:51 PM82.0 °F57.0 °F42 %30.00 in10.0 miWest (280°)4.6 mphClear
4:51 PM82.0 °F55.9 °F41 %30.00 in10.0 miSW (230°)3.5 mphClear
5:51 PM80.1 °F57.9 °F47 %30.00 in10.0 miCalmOvercast
6:51 PM79.0 °F57.9 °F48 %30.00 in10.0 miNorthMostly Cloudy
7:51 PM80.1 °F57.0 °F45 %30.01 in10.0 miVariable3.5 mphOvercast
8:51 PM77.0 °F55.0 °F47 %30.01 in10.0 miVariable5.8 mphClear
9:51 PM77.0 °F55.9 °F48 %30.03 in10.0 miVariable5.8 mphClear
10:51 PM75.0 °F63.0 °F66 %30.04 in10.0 miVariable4.6 mphClear
11:51 PM73.9 °F63.0 °F68 %30.05 in10.0 miWSW (240°)3.5 mphClear
Hourly data recorded from KNYC, located miles away from New York - Upper East Side, New York







STORIES FROM OUR PARTNERS